Location: Boncourt
(49.6160°N, 3.9448°E)
Time: 14:08:50
(UTC+00:00)

Cosmos 540 Rocket - Pass Details

Date: 09 February 2023
Orbit: 740 x 751 km, 74.1° (Epoch: 22 March)

Event Time Altitude Azimuth Distance (km) Brightness Sun altitude
Rises 17:31:52 0° 333° (NNW) 3,206 6.9 -6.9°
Reaches altitude 10° 17:34:16 10° 329° (NNW) 2,275 6.2 -7.2°
Maximum altitude 17:39:18 55° 253° (WSW) 892 4.3 -8.0°
Drops below altitude 10° 17:44:16 10° 176° (S) 2,251 6.0 -8.8°
Sets 17:46:38 0° 172° (S) 3,169 6.8 -9.2°
